Temp
-7 -7 -7 -7 -6 -6 -6 -6 -6 -6 -7 -7 -6 -6 -6 -6 -6 -7 -7 -7 -7 -7 -8 -8 -8 -8 -9 -8 -9 -9 -9 -9 -9 -10 -10 -10 -10 -11 -11 -11 -11 -11 -11
-7 -7 -7 -7 -7 -6 -6 -6 -6 -6 -6 -7 -6 -6 -6 -6 -6 -7 -7 -7 -7 -7 -7 -8 -8 -8 -8 -9 -9 -9 -9 -9 -9 -9 -9 -9 -10 -11 -10 -11 -11 -11 -11
-7 -7 -7 -7 -7 -6 -7 -6 -6 -6 -6 -6 -7 -7 -6 -6 -7 -7 -7 -7 -7 -7 -7 -8 -8 -8 -8 -9 -9 -9 -8 -9 -9 -9 -9 -9 -10 -10 -10 -10 -10 -11 -11
-7 -6 -7 -6 -6 -7 -7 -6 -6 -7 -7 -7 -7 -7 -7 -6 -7 -7 -7 -7 -7 -7 -7 -8 -8 -8 -8 -8 -9 -8 -9 -8 -8 -9 -8 -9 -10 -10 -10 -10 -10 -11 -11
-7 -6 -6 -7 -6 -6 -7 -7 -7 -7 -7 -7 -7 -7 -7 -6 -7 -7 -7 -7 -7 -7 -7 -8 -8 -8 -8 -8 -8 -8 -8 -8 -8 -8 -9 -9 -9 -9 -10 -10 -10 -10 -10
-6 -6 -6 -7 -6 -6 -7 -7 -6 -6 -6 -7 -6 -7 -7 -7 -6 -6 -7 -7 -7 -7 -7 -8 -8 -8 -8 -8 -8 -9 -8 -8 -8 -8 -9 -9 -9 -9 -9 -10 -10 -10 -9
-6 -5 -6 -7 -6 -6 -6 -6 -6 -6 -6 -6 -6 -6 -7 -6 -6 -6 -7 -7 -7 -7 -7 -8 -8 -8 -7 -8 -8 -9 -9 -8 -9 -9 -9 -9 -9 -9 -9 -9 -9 -9 -9
-6 -6 -6 -7 -6 -6 -6 -6 -6 -6 -6 -6 -6 -7 -7 -6 -6 -7 -7 -7 -7 -7 -8 -8 -8 -8 -8 -8 -8 -8 -8 -9 -8 -9 -9 -9 -9 -9 -9 -9 -9 -9 -9
-6 -6 -6 -6 -7 -6 -6 -6 -6 -6 -6 -6 -6 -7 -7 -6 -6 -7 -7 -7 -8 -8 -7 -8 -8 -8 -8 -8 -8 -8 -8 -8 -8 -8 -9 -9 -9 -9 -9 -10 -10 -10 -10
-6 -6 -6 -7 -7 -7 -6 -6 -6 -7 -6 -6 -6 -7 -7 -7 -6 -7 -7 -7 -8 -8 -8 -8 -8 -8 -8 -8 -8 -8 -8 -8 -9 -9 -9 -9 -9 -9 -9 -9 -9 -9 -9
-6 -6 -6 -6 -7 -7 -6 -6 -7 -6 -7 -6 -6 -7 -7 -7 -7 -7 -7 -8 -8 -8 -8 -8 -8 -8 -8 -8 -8 -8 -8 -8 -8 -9 -9 -9 -9 -9 -9 -9 -9 -9 -9
-6 -6 -6 -7 -7 -7 -6 -6 -6 -6 -6 -6 -6 -7 -7 -7 -7 -7 -7 -8 -8 -8 -8 -8 -8 -8 -8 -8 -8 -8 -8 -8 -8 -9 -9 -9 -9 -9 -9 -9 -9 -9 -9
-6 -6 -6 -7 -7 -7 -6 -6 -6 -6 -6 -6 -6 -6 -7 -7 -7 -7 -7 -8 -8 -8 -8 -8 -8 -8 -8 -8 -8 -8 -8 -8 -8 -9 -9 -9 -9 -9 -9 -9 -9 -9 -9
-5 -6 -6 -6 -6 -6 -6 -6 -6 -6 -6 -6 -6 -7 -7 -7 -7 -7 -7 -7 -8 -8 -7 -7 -8 -8 -8 -8 -8 -8 -8 -8 -8 -8 -9 -9 -9 -9 -9 -9 -9 -9 -9
-5 -5 -6 -6 -6 -6 -6 -7 -7 -6 -6 -5 -6 -7 -7 -7 -7 -7 -7 -8 -8 -7 -7 -8 -8 -8 -8 -8 -8 -8 -8 -8 -8 -8 -9 -8 -9 -9 -9 -9 -9 -9 -9
-5 -6 -6 -6 -6 -6 -6 -7 -6 -6 -6 -6 -6 -7 -7 -7 -7 -7 -7 -8 -8 -8 -7 -8 -8 -8 -8 -8 -8 -8 -7 -8 -8 -8 -8 -8 -8 -8 -9 -8 -9 -9 -9
-5 -6 -6 -6 -6 -6 -6 -6 -6 -6 -7 -6 -6 -6 -6 -7 -7 -7 -7 -7 -8 -7 -8 -8 -8 -8 -8 -8 -8 -8 -8 -8 -8 -8 -8 -8 -8 -8 -8 -8 -8 -8 -9
-6 -6 -6 -6 -6 -6 -6 -6 -7 -6 -7 -7 -6 -6 -6 -7 -7 -7 -8 -8 -8 -8 -8 -8 -8 -8 -8 -8 -8 -9 -8 -8 -8 -8 -8 -8 -8 -8 -8 -8 -8 -8 -8
-6 -6 -6 -6 -6 -6 -6 -6 -6 -7 -7 -7 -7 -7 -7 -7 -8 -8 -8 -8 -8 -7 -8 -8 -8 -8 -8 -8 -8 -8 -8 -8 -8 -8 -8 -8 -8 -8 -8 -8 -8 -8 -8
-6 -6 -6 -6 -6 -6 -6 -6 -6 -6 -6 -6 -7 -7 -7 -7 -8 -8 -8 -8 -8 -7 -8 -8 -8 -8 -8 -8 -8 -8 -8 -8 -8 -8 -8 -8 -8 -8 -7 -7 -7 -7 -7
-6 -6 -6 -6 -6 -6 -6 -6 -7 -7 -6 -6 -7 -7 -7 -8 -8 -8 -8 -8 -8 -8 -8 -8 -8 -8 -8 -8 -8 -8 -8 -8 -8 -8 -8 -8 -8 -8 -7 -7 -7 -7 -7
-6 -6 -6 -6 -6 -6 -6 -6 -6 -7 -7 -6 -7 -7 -7 -7 -7 -8 -8 -8 -8 -8 -8 -9 -8 -8 -8 -8 -8 -8 -8 -8 -7 -8 -7 -7 -8 -8 -8 -7 -7 -7 -7
-6 -6 -6 -6 -6 -6 -6 -6 -6 -6 -7 -6 -6 -6 -7 -7 -7 -8 -8 -8 -8 -8 -8 -8 -8 -8 -8 -8 -8 -8 -8 -7 -7 -8 -8 -7 -7 -7 -7 -7 -7 -7 -7
-6 -6 -6 -6 -6 -6 -6 -6 -6 -6 -6 -6 -6 -6 -7 -7 -7 -7 -7 -8 -8 -9 -8 -8 -8 -8 -8 -8 -7 -8 -8 -7 -7 -7 -7 -7 -7 -7 -7 -7 -7 -7 -7
-6 -6 -6 -6 -6 -6 -6 -6 -6 -6 -6 -6 -6 -6 -6 -7 -7 -7 -8 -8 -8 -8 -8 -8 -8 -8 -8 -8 -8 -8 -7 -7 -7 -7 -7 -7 -7 -7 -7 -7 -7 -6 -6
-6 -6 -6 -6 -6 -6 -6 -6 -6 -6 -6 -7 -6 -6 -6 -6 -7 -7 -7 -7 -7 -7 -8 -8 -8 -8 -8 -8 -8 -8 -7 -7 -7 -7 -7 -7 -7 -7 -7 -7 -7 -7 -6
Height
5904 5904 5906 5906 5907 5908 5909 5908 5907 5908 5908 5908 5909 5909 5911 5911 5911 5910 5909 5908 5907 5906 5906 5905 5904 5903 5901 5900 5902 5902 5902 5901 5902 5902 5902 5903 5904 5906 5906 5907 5909 5911 5912
5903 5904 5905 5906 5906 5908 5909 5908 5909 5908 5909 5910 5911 5910 5911 5911 5911 5910 5909 5909 5907 5906 5907 5905 5903 5902 5902 5901 5900 5901 5901 5902 5903 5903 5903 5904 5906 5907 5907 5908 5909 5910 5912
5902 5903 5904 5905 5905 5903 5907 5907 5908 5910 5910 5911 5912 5911 5911 5912 5911 5910 5909 5910 5908 5908 5908 5906 5904 5903 5902 5901 5900 5900 5900 5902 5903 5905 5904 5907 5907 5908 5909 5908 5909 5910 5912
5902 5902 5904 5902 5903 5905 5907 5907 5908 5909 5910 5911 5911 5912 5912 5913 5913 5911 5910 5910 5909 5909 5908 5906 5905 5904 5903 5902 5902 5901 5901 5902 5903 5905 5907 5907 5908 5909 5910 5909 5910 5911 5912
5903 5902 5904 5906 5902 5905 5907 5907 5908 5909 5911 5912 5912 5913 5914 5915 5913 5913 5912 5910 5910 5909 5908 5907 5906 5905 5905 5904 5904 5903 5903 5903 5904 5906 5907 5908 5909 5910 5911 5911 5911 5912 5913
5904 5903 5905 5906 5908 5907 5908 5908 5908 5908 5912 5912 5912 5913 5915 5915 5913 5913 5913 5911 5910 5909 5909 5908 5908 5908 5907 5906 5904 5905 5905 5905 5906 5908 5909 5910 5911 5911 5913 5913 5913 5913 5914
5902 5902 5905 5906 5907 5907 5909 5909 5909 5909 5909 5910 5910 5912 5915 5914 5914 5914 5913 5911 5910 5910 5910 5910 5909 5909 5909 5909 5907 5907 5907 5908 5908 5910 5912 5912 5913 5913 5914 5915 5915 5915 5916
5902 5901 5903 5906 5905 5906 5909 5909 5907 5907 5907 5907 5910 5913 5914 5914 5914 5914 5913 5912 5912 5912 5912 5911 5910 5910 5911 5911 5910 5910 5910 5910 5911 5913 5915 5915 5915 5915 5916 5917 5917 5917 5918
5903 5902 5903 5905 5905 5908 5909 5910 5910 5909 5908 5909 5909 5910 5915 5915 5914 5913 5914 5913 5915 5914 5913 5913 5912 5911 5912 5912 5912 5913 5913 5914 5914 5915 5917 5917 5917 5917 5918 5918 5919 5919 5920
5903 5903 5904 5905 5905 5906 5910 5910 5909 5910 5910 5910 5913 5913 5915 5916 5915 5913 5914 5915 5916 5915 5914 5914 5914 5913 5914 5914 5914 5915 5915 5917 5917 5918 5918 5918 5918 5918 5920 5920 5920 5921 5922
5903 5904 5905 5905 5903 5903 5906 5908 5909 5910 5910 5911 5913 5914 5915 5917 5915 5914 5916 5918 5917 5917 5915 5916 5916 5915 5916 5916 5917 5917 5918 5919 5920 5921 5921 5920 5920 5920 5921 5923 5922 5923 5923
5902 5903 5904 5905 5903 5903 5906 5907 5908 5908 5909 5910 5913 5914 5916 5917 5916 5916 5917 5918 5918 5917 5917 5917 5918 5918 5919 5918 5920 5920 5921 5922 5923 5923 5923 5922 5922 5923 5924 5924 5925 5925 5925
5902 5903 5903 5904 5904 5904 5906 5908 5908 5909 5910 5910 5911 5914 5916 5917 5917 5917 5917 5918 5918 5919 5918 5919 5920 5920 5921 5922 5924 5924 5924 5924 5926 5926 5925 5923 5925 5926 5926 5926 5927 5928 5928
5902 5902 5903 5904 5904 5903 5905 5908 5909 5910 5911 5911 5912 5914 5915 5917 5918 5918 5917 5917 5919 5919 5919 5920 5922 5923 5923 5925 5926 5926 5926 5926 5927 5928 5927 5927 5927 5928 5929 5930 5929 5929 5930
5902 5902 5903 5903 5903 5903 5906 5908 5909 5909 5911 5911 5912 5914 5914 5917 5919 5919 5917 5918 5919 5919 5921 5923 5923 5923 5925 5927 5927 5928 5928 5928 5929 5929 5929 5930 5930 5930 5930 5931 5932 5932 5933
5901 5902 5902 5902 5902 5903 5905 5906 5908 5909 5910 5911 5912 5914 5916 5916 5919 5919 5918 5919 5920 5920 5922 5923 5924 5925 5928 5929 5929 5929 5929 5929 5930 5930 5931 5931 5931 5932 5932 5933 5934 5935 5935
5900 5901 5902 5901 5901 5903 5904 5906 5906 5908 5910 5911 5912 5914 5914 5916 5919 5919 5919 5920 5920 5919 5923 5924 5926 5928 5931 5932 5932 5931 5931 5931 5932 5932 5932 5932 5932 5932 5934 5935 5936 5937 5938
5898 5900 5900 5900 5901 5902 5903 5905 5906 5907 5908 5909 5911 5913 5915 5917 5919 5919 5920 5922 5923 5923 5925 5927 5928 5930 5933 5933 5933 5932 5933 5934 5934 5934 5934 5934 5934 5934 5935 5937 5938 5938 5939
5896 5898 5899 5899 5900 5901 5902 5904 5905 5906 5906 5907 5910 5912 5914 5917 5919 5920 5921 5923 5924 5925 5926 5927 5929 5931 5933 5934 5933 5933 5935 5936 5936 5936 5937 5936 5937 5937 5937 5939 5940 5940 5942
5895 5896 5897 5898 5899 5900 5901 5903 5904 5905 5906 5906 5908 5910 5914 5917 5918 5919 5921 5923 5924 5925 5925 5926 5928 5930 5932 5934 5934 5935 5936 5937 5937 5937 5938 5938 5939 5939 5939 5939 5941 5942 5944
5894 5895 5895 5896 5898 5899 5900 5902 5903 5903 5905 5907 5908 5910 5912 5916 5918 5919 5920 5922 5923 5924 5924 5924 5926 5929 5931 5932 5935 5936 5937 5938 5938 5939 5938 5939 5940 5940 5941 5942 5943 5943 5944
5893 5893 5894 5894 5895 5897 5899 5900 5901 5901 5903 5905 5907 5909 5911 5914 5916 5918 5919 5920 5922 5924 5924 5924 5925 5928 5931 5932 5934 5936 5937 5939 5939 5940 5939 5939 5940 5941 5942 5943 5944 5944 5944
5890 5890 5891 5892 5893 5895 5896 5897 5899 5900 5901 5902 5904 5907 5909 5912 5915 5917 5918 5919 5920 5923 5924 5925 5926 5928 5930 5932 5934 5935 5936 5937 5939 5940 5940 5940 5941 5941 5942 5943 5943 5944 5944
5888 5888 5889 5890 5891 5893 5894 5896 5897 5898 5899 5900 5902 5904 5906 5909 5913 5914 5915 5917 5919 5921 5924 5926 5927 5929 5930 5931 5932 5934 5936 5936 5938 5939 5939 5940 5940 5941 5942 5943 5943 5943 5944
5885 5885 5886 5887 5888 5890 5892 5894 5895 5896 5897 5898 5900 5901 5903 5906 5909 5911 5913 5915 5917 5919 5922 5924 5926 5928 5929 5930 5931 5934 5935 5937 5937 5938 5938 5940 5940 5940 5941 5942 5943 5943 5943
5883 5882 5883 5884 5886 5887 5889 5891 5893 5893 5894 5896 5897 5900 5900 5902 5905 5908 5910 5912 5914 5916 5919 5921 5924 5926 5927 5929 5930 5932 5934 5936 5936 5937 5937 5938 5938 5939 5939 5940 5940 5941 5941
Wind_Speed
6 8 5 5 5 5 5 6 7 8 10 10 10 11 11 12 10 10 10 9 6 7 6 6 7 7 4 4 3 6 6 8 8 6 5 7 13 14 13 12 11 11 11
5 8 6 5 12 15 8 5 6 9 10 9 8 11 11 11 11 11 11 7 6 6 5 7 8 7 5 4 2 6 8 7 8 7 8 10 15 15 12 12 12 10 9
7 10 11 10 4 17 11 6 6 7 8 9 9 11 11 11 12 13 9 7 5 7 8 9 9 8 6 6 5 9 8 10 9 6 11 14 15 14 12 13 11 11 11
5 7 7 11 10 11 9 8 6 7 7 8 11 9 10 12 11 13 9 7 7 7 10 9 10 7 6 7 7 11 8 11 10 10 12 15 15 13 11 13 13 12 13
4 4 5 6 8 12 7 7 5 6 6 8 9 8 10 11 11 11 9 8 8 10 11 10 11 8 6 7 6 8 10 13 14 13 13 14 14 12 11 13 13 12 12
3 6 9 6 6 10 7 6 5 5 5 7 6 7 9 11 11 10 10 10 9 11 10 12 10 8 7 9 8 6 8 11 12 10 12 12 12 11 9 10 12 13 11
6 5 9 6 7 9 6 6 4 1 3 4 4 7 10 11 10 11 11 9 9 10 9 10 11 9 8 10 10 9 9 10 10 9 9 10 10 11 9 8 9 9 9
4 5 8 3 5 6 6 5 2 2 2 1 2 7 10 12 11 12 11 9 9 9 7 9 10 11 8 8 9 9 9 9 9 9 7 9 9 8 7 7 7 7 6
1 4 9 5 2 4 6 3 1 2 8 3 4 10 11 11 13 12 9 9 8 7 5 7 10 12 10 9 10 9 9 10 9 8 7 7 7 7 5 5 7 7 6
2 4 4 4 4 7 8 4 2 3 5 8 8 8 13 11 13 10 10 9 7 4 7 13 12 11 13 14 12 11 11 10 9 7 5 5 6 6 5 5 6 7 8
3 6 6 4 2 0 12 9 5 3 1 3 4 4 8 11 10 7 9 8 6 9 7 13 12 11 12 13 14 14 13 13 12 9 7 7 8 9 9 8 9 8 8
4 5 6 4 4 6 16 8 2 3 2 3 3 3 8 11 8 9 10 9 11 10 8 11 11 13 14 15 15 15 14 14 13 12 11 6 8 9 9 8 9 7 8
6 5 6 5 5 8 10 7 3 1 2 2 5 5 10 11 9 10 11 12 10 9 9 14 16 15 15 17 15 16 15 14 13 12 15 19 13 10 10 9 9 6 6
6 7 6 7 9 10 9 5 6 1 0 2 1 5 13 11 10 11 11 11 12 7 12 16 15 14 12 12 11 12 12 11 10 11 13 16 16 12 11 10 10 10 10
8 8 7 10 11 11 8 5 4 1 3 2 2 6 17 13 11 11 11 9 10 9 14 16 14 11 10 10 11 10 9 8 8 8 10 12 12 13 12 11 10 10 8
8 8 9 9 8 12 10 6 4 1 3 4 5 14 15 14 12 10 9 6 7 7 10 13 13 11 10 10 11 13 12 12 11 9 7 8 9 9 9 8 8 8 7
8 10 9 9 12 11 10 8 4 3 3 5 5 9 14 14 12 10 8 4 8 13 16 12 11 10 8 10 12 16 14 13 13 12 12 10 9 9 8 7 6 6 6
8 10 10 12 12 12 11 9 5 3 5 4 8 8 14 15 11 10 8 6 11 13 20 13 11 13 11 9 13 9 12 14 15 13 10 11 11 12 11 9 7 7 8
10 10 13 13 13 13 12 9 6 4 5 3 11 11 12 13 12 10 8 7 9 11 16 13 14 11 15 13 14 13 12 13 9 9 9 11 11 10 11 10 9 9 9
11 11 14 13 14 13 13 11 9 7 3 1 8 11 10 14 13 10 10 9 9 10 12 11 15 14 18 11 12 12 11 8 6 9 10 11 9 10 9 10 9 8 7
11 14 13 15 13 14 12 12 10 9 4 3 5 7 9 10 14 12 11 11 9 8 9 8 14 16 15 12 12 11 9 8 8 13 13 11 10 10 9 7 7 7 6
14 14 15 16 15 14 13 14 12 10 9 7 5 9 9 10 13 15 14 14 11 10 9 10 11 16 16 13 9 9 9 7 5 8 10 11 8 6 7 7 5 4 5
17 16 15 17 17 16 14 13 10 10 12 13 11 13 16 14 11 14 16 17 14 13 10 11 11 11 15 14 13 7 8 11 7 8 7 9 6 4 4 5 3 2 3
10 16 16 17 15 17 15 13 12 10 10 9 10 15 20 18 15 12 14 18 20 19 14 12 10 11 14 11 10 8 7 11 11 9 8 8 6 3 4 4 2 3 4
10 12 17 19 16 17 18 16 14 11 8 8 8 10 15 20 19 15 14 18 21 22 18 15 13 13 11 11 11 9 8 8 11 9 9 6 5 7 5 7 7 6 6
13 12 14 20 19 17 19 18 16 13 11 11 10 8 13 19 20 18 17 19 22 26 24 19 16 15 14 14 13 11 9 10 9 6 7 7 6 7 9 10 9 8 10
Wind_Direction
262 282 298 318 210 201 159 125 119 92 84 76 69 63 64 56 45 50 53 55 55 47 49 60 74 76 82 81 93 89 114 119 110 104 113 147 157 162 156 147 144 160 164
262 248 244 262 275 228 164 138 94 90 81 76 71 66 58 54 46 53 55 52 58 51 43 51 75 64 63 56 99 120 107 125 143 96 102 146 158 160 156 147 145 152 154
265 244 241 237 221 154 147 143 97 84 83 80 73 63 58 53 45 52 52 59 54 50 45 55 65 61 58 59 82 131 119 125 121 108 107 140 148 151 152 139 138 142 148
345 216 243 251 170 138 139 126 104 97 89 83 78 64 62 54 49 55 58 64 56 52 48 54 63 55 51 60 85 128 123 128 123 132 135 141 144 144 143 135 138 144 150
14 176 166 227 187 151 142 119 112 102 99 91 81 76 67 63 56 63 67 70 65 52 46 46 54 57 69 67 96 108 115 123 127 124 134 139 140 141 143 136 135 140 145
345 208 205 187 128 140 137 120 108 128 100 94 98 92 78 76 64 74 78 74 57 52 43 47 52 70 91 94 92 126 102 118 126 130 137 137 139 136 136 134 131 131 134
350 167 173 180 194 166 166 116 90 80 121 114 121 108 80 84 71 83 81 73 70 59 50 60 55 68 90 93 103 125 119 119 123 131 136 134 139 137 140 139 135 131 137
20 111 131 175 155 149 148 135 53 325 309 206 143 113 95 87 80 84 84 80 77 64 67 69 56 63 91 85 92 105 121 120 121 127 135 133 135 129 137 141 136 137 142
49 127 124 126 182 207 163 155 70 351 351 264 318 106 91 84 79 82 84 70 68 75 76 74 85 78 81 81 93 99 98 102 108 115 124 126 127 127 131 136 138 136 140
191 159 143 142 124 203 205 165 168 37 8 32 45 74 79 76 81 89 91 65 49 30 54 86 94 89 83 81 84 90 96 98 99 102 119 120 124 124 125 135 129 130 132
206 187 182 171 121 137 202 182 185 76 36 358 57 48 57 81 89 102 87 69 35 18 39 84 113 92 98 97 92 91 91 93 91 90 100 113 111 106 105 118 118 121 126
219 188 186 177 151 120 156 181 213 107 255 314 332 325 85 95 102 89 84 71 59 47 71 91 119 110 102 99 96 96 98 93 88 83 76 102 137 111 112 117 112 120 123
205 191 188 195 201 191 166 183 230 232 172 87 37 78 115 120 113 89 82 76 61 61 89 117 119 109 101 98 102 101 98 94 92 88 79 76 111 101 108 106 104 102 129
215 209 205 219 217 206 197 188 147 135 281 350 343 109 142 134 117 97 81 65 40 70 114 121 119 114 105 105 108 104 103 102 97 94 90 89 96 98 95 93 100 94 111
231 214 215 204 202 200 193 197 187 144 326 12 82 150 146 139 120 109 89 64 52 108 134 134 133 119 115 113 109 104 102 106 105 102 98 93 96 98 94 98 99 95 109
234 217 207 194 196 201 206 212 226 192 307 2 85 146 150 141 132 125 99 70 63 137 135 146 137 137 119 114 103 94 92 92 89 91 94 98 97 98 100 99 100 100 110
237 216 208 212 199 205 214 217 230 273 245 284 148 154 158 146 144 133 118 69 70 125 144 151 151 150 133 112 99 97 86 91 92 90 93 95 99 102 105 111 105 105 115
240 227 218 205 199 207 222 229 230 264 286 256 170 158 163 151 150 143 130 98 85 134 142 137 158 172 153 123 126 103 106 94 87 83 89 97 94 96 101 108 115 123 124
233 226 225 219 219 221 218 213 202 250 286 232 179 156 155 160 156 159 143 126 125 127 163 164 159 151 171 148 124 114 111 111 93 88 87 98 96 100 105 110 113 119 125
245 233 227 219 224 222 216 213 204 225 276 171 165 178 161 178 169 169 162 158 144 128 146 157 166 158 151 155 130 132 134 132 98 128 110 110 86 112 115 121 122 126 133
253 249 240 227 225 223 220 216 231 228 235 226 200 181 171 170 182 184 185 178 185 149 121 130 184 178 170 167 155 154 158 148 117 130 121 116 100 118 116 115 129 143 147
245 249 242 238 227 227 231 230 236 231 226 236 214 211 204 186 194 200 200 193 196 187 142 118 145 175 179 181 183 171 172 166 168 158 145 138 132 129 132 133 130 161 164
252 247 241 242 243 243 237 235 240 242 232 229 228 212 209 207 202 202 206 202 195 187 176 159 153 163 183 190 193 170 184 184 186 190 160 152 157 157 172 162 145 178 159
262 247 244 246 246 248 240 235 238 248 243 237 243 229 213 215 214 215 211 201 193 186 192 190 195 175 176 177 181 194 187 186 185 205 198 179 173 175 202 218 193 213 218
255 260 241 249 249 249 243 238 238 238 247 228 231 230 235 221 220 225 226 205 195 191 193 199 197 195 192 189 211 196 186 205 195 198 186 195 191 187 208 227 249 262 271
256 269 258 243 242 247 249 241 239 242 246 245 241 248 241 230 218 217 224 211 207 202 201 200 200 204 202 199 198 196 211 198 199 203 188 188 206 238 242 253 269 271 266